When you browse on this site, cookies collect data to enhance your experience and personalize the content and advertising you see.
Visit our Privacy Policy to learn more. By continuing to use the site, you agree to this use of cookies and data.
  • En España
  • Lista de países
  • Para 7 días
  • Temperatura del agua
  • El tiempo en el mapa
  • Informadores
  • user-avatar
    Iniciar sesión

    Tiempo cada hora Palermo

    Hoy, 15 Noviembre, Viernes

    Tiempo Temperatura Precipitaciones Viento Presión Humedad
    00:00 +13°C° 0 mm 4 mps 754 mmHg 89%
    01:00 +13°C° 0 mm 5 mps 754 mmHg 87%
    02:00 +13°C° 0 mm 5 mps 754 mmHg 86%
    03:00 +13°C° 0 mm 5 mps 754 mmHg 86%
    04:00 +13°C° 0 mm 5 mps 754 mmHg 86%
    05:00 +13°C° 0 mm 5 mps 754 mmHg 86%
    06:00 +14°C° 0 mm 6 mps 754 mmHg 87%
    07:00 +14°C° 0 mm 5 mps 754 mmHg 85%
    08:00 +16°C° 0 mm 6 mps 754 mmHg 79%
    09:00 +17°C° 0 mm 7 mps 754 mmHg 74%
    10:00 +20°C° 0 mm 7 mps 755 mmHg 68%
    11:00 +20°C° 0 mm 8 mps 754 mmHg 65%
    12:00 +21°C° 0 mm 8 mps 754 mmHg 62%
    13:00 +22°C° 0 mm 9 mps 754 mmHg 59%
    14:00 +21°C° 0 mm 9 mps 754 mmHg 61%
    15:00 +19°C° 0 mm 9 mps 754 mmHg 63%
    16:00 +20°C° 0 mm 8 mps 754 mmHg 65%
    17:00 +18°C° 0 mm 8 mps 754 mmHg 72%
    18:00 +17°C° 0 mm 8 mps 754 mmHg 78%
    19:00 +17°C° 0 mm 7 mps 754 mmHg 84%
    20:00 +17°C° 0 mm 7 mps 755 mmHg 85%
    21:00 +16°C° 0 mm 6 mps 755 mmHg 86%
    22:00 +16°C° 0 mm 5 mps 755 mmHg 86%
    23:00 +16°C° 0 mm 6 mps 755 mmHg 86%

    Mañana, 16 Noviembre, Sábado

    Tiempo Temperatura Precipitaciones Viento Presión Humedad
    00:00 +16°C° 0 mm 6 mps 755 mmHg 86%
    01:00 +16°C° 0 mm 7 mps 755 mmHg 85%
    02:00 +16°C° 0 mm 6 mps 755 mmHg 85%
    03:00 +16°C° 0 mm 6 mps 755 mmHg 85%
    04:00 +16°C° 0 mm 6 mps 755 mmHg 84%
    05:00 +16°C° 0 mm 6 mps 755 mmHg 83%
    06:00 +16°C° 0 mm 6 mps 755 mmHg 83%
    07:00 +16°C° 0 mm 6 mps 755 mmHg 82%
    08:00 +19°C° 0 mm 6 mps 755 mmHg 76%
    09:00 +20°C° 0 mm 7 mps 755 mmHg 71%
    10:00 +21°C° 0 mm 7 mps 755 mmHg 65%
    11:00 +22°C° 0 mm 8 mps 754 mmHg 60%
    12:00 +22°C° 0 mm 9 mps 753 mmHg 56%
    13:00 +23°C° 0 mm 10 mps 753 mmHg 51%
    14:00 +22°C° 0 mm 9 mps 752 mmHg 56%
    15:00 +22°C° 0 mm 9 mps 752 mmHg 60%
    16:00 +21°C° 0 mm 9 mps 751 mmHg 65%
    17:00 +19°C° 0 mm 9 mps 751 mmHg 70%
    18:00 +18°C° 0 mm 9 mps 751 mmHg 74%
    19:00 +17°C° 0 mm 9 mps 751 mmHg 79%
    20:00 +17°C° 0 mm 9 mps 750 mmHg 80%
    21:00 +17°C° 0 mm 9 mps 750 mmHg 80%
    22:00 +17°C° 0 mm 9 mps 750 mmHg 81%
    23:00 +17°C° 0 mm 9 mps 750 mmHg 81%

    Pasado mañana, 17 Noviembre, Domingo

    Tiempo Temperatura Precipitaciones Viento Presión Humedad
    00:00 +18°C° 0 mm 9 mps 750 mmHg 80%
    01:00 +18°C° 0 mm 8 mps 750 mmHg 80%
    02:00 +17°C° 0.1 mm 7 mps 751 mmHg 81%
    03:00 +16°C° 0.1 mm 6 mps 751 mmHg 82%
    04:00 +15°C° 0.1 mm 5 mps 751 mmHg 83%
    05:00 +14°C° 0.1 mm 6 mps 751 mmHg 83%
    06:00 +14°C° 0.1 mm 6 mps 752 mmHg 82%
    07:00 +13°C° 0.1 mm 6 mps 752 mmHg 81%
    08:00 +13°C° 0.1 mm 6 mps 753 mmHg 76%
    09:00 +14°C° 0.1 mm 5 mps 753 mmHg 71%
    10:00 +14°C° 0.1 mm 4 mps 754 mmHg 67%
    11:00 +14°C° 0.8 mm 4 mps 754 mmHg 67%
    12:00 +15°C° 0.8 mm 5 mps 755 mmHg 68%
    13:00 +15°C° 0.8 mm 5 mps 755 mmHg 68%
    14:00 +15°C° 1.1 mm 5 mps 755 mmHg 70%
    15:00 +15°C° 1.1 mm 5 mps 755 mmHg 71%
    16:00 +15°C° 1.1 mm 5 mps 756 mmHg 72%
    17:00 +14°C° 0.2 mm 5 mps 756 mmHg 76%
    18:00 +13°C° 0.2 mm 5 mps 757 mmHg 80%
    19:00 +12°C° 0.2 mm 5 mps 757 mmHg 84%
    20:00 +12°C° 0.2 mm 5 mps 757 mmHg 85%
    21:00 +12°C° 0.2 mm 5 mps 758 mmHg 86%
    22:00 +10°C° 0.2 mm 5 mps 758 mmHg 87%
    23:00 +10°C° 0.1 mm 6 mps 758 mmHg 86%

    18 Noviembre, Lunes

    Tiempo Temperatura Precipitaciones Viento Presión Humedad
    00:00 +10°C° 0.1 mm 6 mps 758 mmHg 86%
    01:00 +10°C° 0.1 mm 6 mps 758 mmHg 85%
    02:00 +10°C° 0.2 mm 6 mps 758 mmHg 84%
    03:00 +10°C° 0.2 mm 6 mps 758 mmHg 82%
    04:00 +10°C° 0.2 mm 5 mps 758 mmHg 81%
    05:00 +10°C° 0 mm 5 mps 759 mmHg 79%
    06:00 +10°C° 0 mm 5 mps 759 mmHg 78%
    07:00 +11°C° 0 mm 4 mps 759 mmHg 77%
    08:00 +13°C° 0 mm 5 mps 759 mmHg 72%
    09:00 +14°C° 0 mm 5 mps 759 mmHg 67%
    10:00 +16°C° 0 mm 5 mps 760 mmHg 62%
    11:00 +16°C° 0 mm 6 mps 759 mmHg 62%
    12:00 +16°C° 0 mm 6 mps 759 mmHg 61%
    13:00 +17°C° 0 mm 7 mps 759 mmHg 61%
    14:00 +16°C° 0 mm 7 mps 758 mmHg 63%
    15:00 +16°C° 0 mm 7 mps 758 mmHg 66%
    16:00 +15°C° 0 mm 7 mps 758 mmHg 69%
    17:00 +14°C° 0 mm 6 mps 758 mmHg 72%
    18:00 +13°C° 0 mm 6 mps 758 mmHg 75%
    19:00 +13°C° 0 mm 6 mps 758 mmHg 78%
    20:00 +13°C° 0 mm 6 mps 758 mmHg 79%
    21:00 +13°C° 0 mm 6 mps 758 mmHg 79%
    22:00 +13°C° 0 mm 6 mps 758 mmHg 80%
    23:00 +12°C° 0 mm 7 mps 758 mmHg 80%

    19 Noviembre, Martes

    Tiempo Temperatura Precipitaciones Viento Presión Humedad
    00:00 +12°C° 0 mm 7 mps 758 mmHg 80%
    01:00 +12°C° 0 mm 7 mps 758 mmHg 81%
    02:00 +12°C° 0 mm 7 mps 758 mmHg 81%
    03:00 +11°C° 0 mm 7 mps 757 mmHg 81%
    04:00 +11°C° 0 mm 6 mps 757 mmHg 81%
    05:00 +11°C° 0 mm 6 mps 757 mmHg 81%
    06:00 +13°C° 0 mm 6 mps 757 mmHg 80%
    07:00 +13°C° 0 mm 6 mps 758 mmHg 80%
    08:00 +13°C° 0.1 mm 6 mps 758 mmHg 75%
    09:00 +14°C° 0.1 mm 7 mps 758 mmHg 71%
    10:00 +14°C° 0.1 mm 7 mps 758 mmHg 66%
    11:00 +15°C° 0.1 mm 7 mps 758 mmHg 64%
    12:00 +16°C° 0.1 mm 8 mps 758 mmHg 62%
    13:00 +16°C° 0.1 mm 8 mps 758 mmHg 60%
    14:00 +16°C° 0 mm 7 mps 758 mmHg 64%
    15:00 +15°C° 0 mm 7 mps 758 mmHg 68%
    16:00 +15°C° 0 mm 7 mps 758 mmHg 71%
    17:00 +14°C° 0.2 mm 6 mps 758 mmHg 76%
    18:00 +13°C° 0.2 mm 5 mps 758 mmHg 81%
    19:00 +12°C° 0.2 mm 4 mps 759 mmHg 86%
    20:00 +12°C° 0.1 mm 4 mps 759 mmHg 86%
    21:00 +12°C° 0.1 mm 4 mps 759 mmHg 87%
    22:00 +12°C° 0.1 mm 3 mps 760 mmHg 87%
    23:00 +11°C° 0 mm 3 mps 760 mmHg 87%

    20 Noviembre, Miércoles

    Tiempo Temperatura Precipitaciones Viento Presión Humedad
    00:00 +11°C° 0 mm 3 mps 760 mmHg 87%
    01:00 +11°C° 0 mm 3 mps 760 mmHg 87%
    02:00 +12°C° 0 mm 2 mps 760 mmHg 86%
    03:00 +12°C° 0 mm 2 mps 760 mmHg 86%
    04:00 +10°C° 0 mm 2 mps 760 mmHg 85%
    05:00 +10°C° 0 mm 2 mps 761 mmHg 83%
    06:00 +10°C° 0 mm 2 mps 761 mmHg 81%
    07:00 +10°C° 0 mm 2 mps 761 mmHg 79%
    08:00 +13°C° 0 mm 1 mps 761 mmHg 71%
    09:00 +14°C° 0 mm 1 mps 761 mmHg 64%
    10:00 +16°C° 0 mm 1 mps 762 mmHg 56%
    11:00 +18°C° 0 mm 1 mps 761 mmHg 53%
    12:00 +18°C° 0 mm 1 mps 761 mmHg 50%
    13:00 +19°C° 0 mm 1 mps 761 mmHg 47%
    14:00 +18°C° 0 mm 1 mps 761 mmHg 53%
    15:00 +18°C° 0 mm 1 mps 761 mmHg 59%
    16:00 +16°C° 0 mm 1 mps 760 mmHg 64%
    17:00 +15°C° 0 mm 2 mps 760 mmHg 69%
    18:00 +14°C° 0 mm 2 mps 761 mmHg 74%
    19:00 +13°C° 0 mm 2 mps 761 mmHg 79%
    20:00 +13°C° 0 mm 2 mps 761 mmHg 77%
    21:00 +13°C° 0 mm 2 mps 761 mmHg 75%
    22:00 +13°C° 0 mm 2 mps 761 mmHg 73%
    23:00 +13°C° 0 mm 2 mps 761 mmHg 73%
    Mostrar más